Home > Weather > Manhattan > Past weeks

Flag for USA Weather for the Past 2 Weeks in Manhattan, Kansas, USA

Now
76 °F

Sunny.


Feels Like: 77 °F
Forecast: 43 / 78 °F
Wind: No wind

Location: Manhattan Municipal Airport

Current Time: May 5, 2016 at 1:38:32 PM

Latest Report: May 5, 2016 at 12:52 PM


Visibility: 10 mi

Pressure: 30.08 "Hg

Humidity: 25%

Dew Point: 38 °F

Location of ManhattanLocation

Historic Weather in Manhattan — Graph

°F

Manhattan Temperature Yesterday

Maximum temperature yesterday: 73 °F (at 4:52 PM)
Minimum temperature yesterday: 47 °F (at 11:52 PM)
Average temperature yesterday: 61 °F

High & Low Weather Summary for the Past Weeks

 TemperatureHumidityPressure
High83 °F (Apr 24, 1:52 PM)100% (Apr 24, 9:59 PM)30.19 "Hg (Apr 24, 9:59 PM)
Low40 °F (May 3, 5:52 AM)25% (May 4, 3:52 PM)29.43 "Hg (Apr 27, 3:52 AM)
Average59 °F67%29.88 "Hg
* Reported Apr 20 11:52 AM — May 5 11:52 AM, Manhattan, Weather by CustomWeather, © 2016

Note: Actual official high and low records may vary slightly from our data, if they occured in-between our weather recording intervals... More about our weather records

Advertising

Manhattan Weather History for the Previous 24 Hours

Scroll right to see more
 ConditionsComfort  
Time TempWeatherWind HumidityBarometerVisibility
11:52 AM
Thu, May 5
73 °FSunny.No wind29%30.09 "Hg10 mi
10:52 AM70 °FSunny.3 mph41%30.10 "Hg10 mi
9:52 AM63 °FSunny.3 mph58%30.11 "Hg10 mi
8:52 AM54 °FSunny.3 mph72%30.11 "Hg10 mi
7:52 AM48 °FSunny.3 mph83%30.09 "Hg10 mi
6:52 AM42 °FClear.No wind85%30.08 "Hg10 mi
5:52 AM40 °FClear.3 mph89%30.06 "Hg10 mi
4:52 AM41 °FClear.No wind89%30.05 "Hg10 mi
3:52 AM41 °FClear.No wind89%30.05 "Hg10 mi
2:52 AM42 °FClear.No wind89%30.04 "Hg10 mi
1:52 AM45 °FClear.No wind82%30.04 "Hg10 mi
12:52 AM46 °FClear.No wind79%30.04 "Hg10 mi
11:52 PM
Wed, May 4
47 °FClear.No wind77%30.03 "Hg10 mi
10:52 PM49 °FClear.No wind71%30.03 "Hg10 mi
9:52 PM53 °FClear.No wind61%30.02 "Hg10 mi
8:52 PM63 °FSunny.3 mph37%30.00 "Hg10 mi
7:52 PM68 °FSunny.3 mph31%29.99 "Hg10 mi
6:52 PM71 °FSunny.8 mph25%30.00 "Hg10 mi
5:52 PM73 °FSunny.6 mph25%30.00 "Hg10 mi
4:52 PM73 °FSunny.7 mph26%30.00 "Hg10 mi
3:52 PM72 °FSunny.8 mph25%30.02 "Hg10 mi
2:52 PM71 °FSunny.15 mph27%30.03 "Hg10 mi
1:52 PM70 °FSunny.12 mph29%30.04 "Hg10 mi
Weather by CustomWeather, © 2016

See weather overviewHow to use our weather pages